sat.trackr.live / text

‹ back to catalog

STARLINK-2748

NORAD 48694 · 2021-044BJ

PAYLOAD ACTIVE UNKNOWN

§ Identity

Operator
Country
US
Launch date
2021-05-26
Launch site
AFETR
Launch vehicle
Mass (kg)
RCS (m²)

Purposes: comms

External: N2YO · Heavens-Above · Gunter

§ Orbital elements

Epoch: 2026-09-19T11:55:38.271072Z

Period
94.01 min
Inclination
53.1599°
Eccentricity
0.0001359
Mean motion
15.31705148 rev/d
Perigee alt
469.8 km
Apogee alt
471.7 km
Semi-major
6,848.9 km
B*
2.4513e-5
RAAN
256.5372°
Arg perigee
87.3962°
Mean anomaly
272.7195°
Rev number
29,401

§ Raw data

STARLINK-27481 48694U 21044BJ  26262.49697073  .00000396  00000+0  24513-4 0  99912 48694  53.1599 256.5372 0001359  87.3962 272.7195 15.31705148294012

JSON: /api/v1/satellites/48694 · /tle

For live sub-satellite position, see the globe view (requires WebGL).

§ Visibility from observer

Set your observer location to see the next 7 days of passes ≥ 10°. The values pass through the URL so the page stays shareable.

No JS? Fill the form by hand. The geolocation button needs JavaScript.